Flag for U.S.A. Weather past 2 weeks in French Lick, Indiana, U.S.A.

Now
16 °F

Clear.


Feels Like: 2 °F
Forecast: 7 / 16 °F
Wind: 13 mph from North

Location: Huntingburg Airport

Current Time: Feb 27, 2015 at 1:49:16 AM

Latest Report: Feb 27, 2015 at 1:15 AM


Visibility: 10 mi

Pressure: 30.42 "Hg

Humidity: 67%

Dew point: 7 °F

Location of French LickLocation

Historic Weather in French Lick — Graph

°F

French Lick temperature yesterday

Maximum temperature yesterday: 30 °F (at 11:15 AM)
Minimum temperature yesterday: 18 °F (at 11:35 PM)
Average temperature yesterday: 25 °F

Past Weeks' High & Low Weather Summary

 TemperatureHumidityPressure
High36 °F (Feb 14, 9:35 AM)100% (Feb 17, 8:55 AM)30.67 "Hg (Feb 17, 8:55 AM)
Low-11 °F (Feb 20, 2:55 AM)41% (Feb 14, 6:35 PM)29.85 "Hg (Feb 18, 3:55 AM)
Average19 °F66%30.21 "Hg
* Reported Feb 12 12:15 AM — Feb 27 12:35 AM, French Lick, Weather by CustomWeather, © 2015

Note: Actual official high and low records may vary slightly from our data, if they occured in-between our weather recording intervals... More about our weather records

Advertising

French Lick weather history for previous 24 hours

 ConditionsComfort  
Time TempWeatherWind HumidityBarometerVisibility
12:35 AM
Fri, Feb 27
18 °FClear.9 mph68%30.42 "Hg10 mi
12:15 AM18 °FClear.10 mph73%30.41 "Hg10 mi
11:35 PM
Thu, Feb 26
18 °FClear.8 mph73%30.41 "Hg10 mi
11:15 PM19 °FClear.9 mph68%30.40 "Hg10 mi
10:35 PM19 °FClear.10 mph73%30.39 "Hg10 mi
10:15 PM21 °FClear.9 mph74%30.38 "Hg10 mi
9:55 PM21 °FClear.10 mph80%30.37 "Hg10 mi
9:35 PM21 °FClear.9 mph74%30.36 "Hg10 mi
9:15 PM21 °FClear.9 mph74%30.35 "Hg10 mi
8:55 PM21 °FClear.12 mph74%30.34 "Hg10 mi
8:35 PM21 °FClear.13 mph74%30.34 "Hg10 mi
8:15 PM21 °FPassing clouds.9 mph74%30.32 "Hg10 mi
7:55 PM23 °FPassing clouds.10 mph68%30.31 "Hg10 mi
7:35 PM23 °FClear.12 mph68%30.30 "Hg10 mi
7:15 PM25 °FClear.12 mph59%30.28 "Hg10 mi
6:55 PM25 °FClear.12 mph54%30.26 "Hg10 mi
6:35 PM25 °FSunny.9 mph59%30.25 "Hg10 mi
6:15 PM25 °FSunny.13 mph59%30.25 "Hg10 mi
5:55 PM25 °FSunny.16 mph59%30.23 "Hg10 mi
5:35 PM25 °FSunny.16 mph59%30.23 "Hg10 mi
5:15 PM27 °FSunny.17 mph59%30.21 "Hg10 mi
4:55 PM27 °FSunny.17 mph59%30.21 "Hg10 mi
4:35 PM27 °FSunny.16 mph59%30.19 "Hg10 mi
4:15 PM27 °FSunny.13 mph59%30.17 "Hg10 mi
3:55 PM27 °FSunny.16 mph64%30.17 "Hg10 mi
3:35 PM27 °FSunny.13 mph69%30.16 "Hg10 mi
3:15 PM27 °FSunny.14 mph69%30.15 "Hg10 mi
2:55 PM27 °FPassing clouds.16 mph69%30.14 "Hg10 mi
2:35 PM27 °FPassing clouds.16 mph69%30.13 "Hg10 mi
2:15 PM27 °FSunny.13 mph69%30.12 "Hg10 mi
1:55 PM27 °FPassing clouds.14 mph74%30.11 "Hg10 mi
1:35 PM27 °FScattered clouds.13 mph74%30.11 "Hg10 mi
1:15 PM28 °FPartly sunny.15 mph69%30.11 "Hg10 mi
12:55 PM28 °FBroken clouds.14 mph69%30.10 "Hg10 mi
12:35 PM28 °FScattered clouds.14 mph69%30.10 "Hg10 mi
12:15 PM28 °FPassing clouds.9 mph69%30.10 "Hg10 mi
11:55 AM30 °FPassing clouds.13 mph64%30.10 "Hg10 mi
11:35 AM28 °FSunny.13 mph64%30.10 "Hg10 mi
11:15 AM30 °FSunny.7 mph59%30.08 "Hg10 mi
10:55 AM28 °FSunny.9 mph59%30.07 "Hg10 mi
10:35 AM28 °FSunny.8 mph59%30.05 "Hg10 mi
10:15 AM27 °FSunny.10 mph64%30.05 "Hg10 mi
9:55 AM27 °FSunny.10 mph64%30.05 "Hg10 mi
9:35 AM27 °FSunny.9 mph69%30.04 "Hg10 mi
9:15 AM27 °FSunny.10 mph64%30.03 "Hg10 mi
8:55 AM27 °FSunny.6 mph64%30.04 "Hg10 mi
8:35 AM25 °FSunny.7 mph69%30.00 "Hg10 mi
8:15 AM25 °FSunny.6 mph69%30.00 "Hg10 mi
7:55 AM25 °FSunny.9 mph69%29.98 "Hg10 mi
7:35 AM25 °FSunny.7 mph69%29.98 "Hg10 mi
7:15 AM25 °FPassing clouds.7 mph69%29.97 "Hg10 mi
6:55 AM23 °FPassing clouds.8 mph74%29.96 "Hg10 mi
6:35 AM23 °FClear.7 mph68%29.95 "Hg10 mi
6:15 AM23 °FClear.8 mph68%29.93 "Hg10 mi
5:55 AM25 °FClear.7 mph69%29.93 "Hg10 mi
5:35 AM25 °FClear.6 mph63%29.92 "Hg10 mi
5:15 AM25 °FClear.8 mph63%29.91 "Hg10 mi
4:55 AM25 °FClear.9 mph63%29.90 "Hg10 mi
4:35 AM25 °FClear.7 mph63%29.90 "Hg10 mi
4:15 AM25 °FClear.8 mph69%29.90 "Hg10 mi
3:55 AM25 °FClear.7 mph69%29.90 "Hg10 mi
3:35 AM25 °FClear.8 mph69%29.89 "Hg10 mi
3:15 AM27 °FClear.7 mph64%29.89 "Hg10 mi
2:55 AM25 °FClear.7 mph69%29.89 "Hg10 mi
2:35 AM25 °FClear.6 mph69%29.88 "Hg10 mi
2:15 AM25 °FClear.6 mph69%29.88 "Hg10 mi
1:55 AM25 °FClear.6 mph69%29.88 "Hg10 mi
1:15 AM27 °FClear.6 mph69%29.87 "Hg10 mi
Weather by CustomWeather, © 2015

See weather overviewHow to use our weather pages